Theta_e
324 319 317 315 314 312 307 303 296 295 298 294 293 295 296 302 305 305 306 311 312 317 322 324 325 325 317 319 325 328 329 321 321 310 305 325 340 341 342 342 343 344 345 347 347 347 349 352 352 352 353 352 353 353 353 354 354 354 354 354 354 353 353 353 353 353 353 353 353 353 353 352 352 352 351 351 351 351 351 351 350 350 350 350 349 349 349 348 347 346 347 346 344 343 344 345 345
319 318 315 313 310 306 301 304 295 292 293 291 295 297 297 301 302 301 306 309 314 321 325 328 330 332 333 332 331 330 328 331 332 327 330 337 340 341 343 343 343 343 344 345 346 348 348 350 352 352 353 352 353 353 353 354 354 354 354 354 354 354 354 353 353 353 353 353 353 352 352 352 352 352 351 351 351 351 351 350 350 350 350 349 349 348 348 348 348 348 347 346 344 344 344 344 344
319 316 314 314 308 306 303 299 294 290 292 288 294 297 301 300 300 302 306 317 323 326 330 330 331 330 330 330 323 321 314 334 332 332 331 338 333 336 342 343 343 343 344 346 347 348 348 350 353 352 352 353 353 353 354 354 354 354 354 354 354 353 353 353 353 353 352 352 352 352 352 351 351 351 351 351 351 350 350 350 350 350 350 350 349 348 347 346 346 346 345 345 344 344 344 343 343
314 316 311 306 304 302 296 294 292 291 292 289 292 299 301 300 301 303 307 317 324 327 328 324 321 328 329 324 328 333 329 331 333 331 330 333 333 338 341 343 345 345 346 347 347 348 349 351 353 352 352 353 353 354 354 354 354 354 354 354 354 353 353 353 352 352 352 352 351 351 351 350 350 350 350 350 350 350 350 350 349 349 348 348 348 348 347 346 346 346 346 345 344 344 344 343 344
310 311 311 306 301 300 298 298 293 291 291 289 293 299 301 301 302 304 306 313 317 322 324 324 324 329 331 330 331 324 326 334 333 336 334 336 339 340 341 343 343 343 344 346 348 349 349 352 352 353 352 353 353 354 354 354 354 354 353 353 353 353 353 353 353 352 352 351 351 350 350 350 350 350 349 349 349 349 349 349 349 349 348 346 345 345 346 346 347 347 346 346 346 345 344 344 344
310 308 311 307 303 302 297 293 291 292 295 294 293 298 301 303 302 304 305 306 309 321 325 324 323 323 325 327 329 326 335 327 335 336 336 334 339 341 341 342 341 341 343 346 347 347 348 351 353 353 353 353 353 354 354 354 353 353 353 353 353 353 352 352 352 352 351 351 350 349 349 349 349 348 348 348 348 347 347 347 347 346 346 346 345 345 346 346 347 347 347 346 346 344 345 344 344
308 306 302 301 301 301 292 290 290 291 296 297 296 300 303 304 304 304 304 312 320 324 327 325 328 326 322 330 333 336 340 340 337 336 338 337 339 340 341 341 341 341 343 345 347 348 349 353 353 353 354 353 354 353 353 353 353 353 353 353 353 352 352 351 351 351 350 349 348 348 348 348 347 347 346 346 346 346 346 346 346 345 345 345 346 346 346 347 348 348 348 347 346 345 344 344 345
313 304 302 295 295 296 294 291 291 291 295 297 299 301 304 305 305 304 304 303 306 320 326 327 326 324 322 336 324 337 342 343 339 339 338 337 338 340 341 341 340 341 343 345 347 349 353 353 354 354 353 354 354 353 353 353 353 353 353 353 353 352 352 351 351 350 349 348 347 347 346 346 345 345 344 344 344 343 343 344 346 345 345 345 345 344 346 347 348 348 348 347 346 347 346 346 345
308 306 304 296 294 294 291 291 292 295 297 300 301 304 312 308 307 305 304 304 318 323 324 324 325 320 324 330 328 336 338 339 339 340 337 337 338 339 341 341 341 341 343 345 348 350 351 353 353 353 354 354 353 353 353 353 353 353 353 352 352 351 351 350 350 349 349 348 347 346 346 345 344 343 343 343 343 343 342 342 343 343 344 344 345 345 345 346 347 347 348 348 347 346 347 346 346
304 305 296 295 292 293 288 289 291 294 296 300 300 302 304 305 304 305 304 305 315 321 324 328 327 323 330 327 330 334 334 338 338 337 338 339 340 340 340 341 342 341 343 346 348 349 350 355 353 353 353 353 353 353 353 353 353 353 352 352 351 351 350 350 349 349 349 347 346 346 345 344 343 343 343 342 342 342 342 342 342 344 344 344 344 344 344 345 345 346 347 347 347 346 346 347 346
298 300 299 297 293 289 290 289 290 294 297 300 301 304 305 306 304 303 304 305 322 324 328 331 328 328 330 329 328 340 340 338 336 334 339 339 340 339 339 341 342 343 343 346 347 349 350 351 355 353 353 353 353 353 353 353 352 352 351 351 351 350 350 349 349 348 348 347 346 345 344 344 343 342 341 340 341 341 341 342 341 341 342 342 342 343 343 344 345 345 346 347 346 346 347 346 346
296 296 298 290 290 289 288 289 293 295 297 298 300 304 306 306 304 301 301 311 320 325 325 329 325 332 327 327 327 337 338 338 337 338 339 340 339 339 340 341 342 344 345 346 348 348 350 351 352 355 353 353 352 353 352 352 352 351 351 350 350 350 349 348 348 348 347 347 346 345 344 344 344 344 343 342 341 341 341 342 342 341 341 341 341 342 342 342 344 344 346 346 346 347 346 346 346
298 295 292 291 287 289 291 291 292 297 297 298 300 305 306 305 303 301 300 304 321 322 323 330 333 332 322 325 332 339 336 338 339 340 340 339 339 340 340 340 342 344 345 346 347 347 349 350 351 351 352 353 353 353 352 352 351 350 350 350 349 349 349 348 348 347 347 346 345 345 345 344 344 343 344 343 342 341 341 340 340 341 341 341 341 341 340 342 342 344 345 345 346 346 346 346 347
299 296 293 291 291 291 291 290 291 292 293 298 301 304 305 304 304 304 303 311 313 314 324 335 333 333 327 331 332 334 336 341 341 340 340 340 339 339 338 340 341 343 344 345 346 347 347 349 350 350 350 350 350 352 352 351 351 350 350 349 349 349 348 348 348 347 346 346 345 345 344 345 344 344 344 343 342 341 340 340 340 341 341 341 341 341 341 341 342 342 344 344 346 346 346 347 347
300 298 295 292 290 291 291 291 292 292 293 297 302 304 305 307 306 304 303 315 321 332 334 338 335 328 322 328 328 333 337 341 341 340 339 339 338 337 338 339 339 341 343 344 346 346 347 348 349 349 349 349 349 348 348 350 351 350 350 350 349 349 348 348 347 346 346 345 345 345 345 345 345 344 344 344 344 343 342 340 339 340 340 340 339 341 340 342 340 341 344 342 345 344 346 347 347
301 298 296 292 288 291 289 292 293 292 293 298 303 304 303 305 305 304 306 321 327 334 335 327 335 324 330 331 332 338 340 341 340 339 338 337 337 337 337 337 337 339 341 343 343 345 347 347 347 347 348 348 349 348 347 348 350 350 350 349 349 349 348 348 347 347 346 346 345 345 345 343 344 342 345 342 344 343 343 342 341 339 339 340 340 340 340 341 341 342 342 342 342 344 346 347 347
302 301 292 290 288 289 290 292 292 290 295 300 302 302 300 302 303 326 332 333 328 329 330 329 329 337 333 334 338 341 341 341 340 338 336 335 335 334 334 335 335 336 339 339 340 343 345 345 345 345 347 347 348 348 347 347 349 349 349 349 349 349 348 348 347 347 346 346 345 345 345 338 337 338 338 340 344 341 344 342 343 342 339 340 340 340 341 341 342 342 342 343 342 342 344 345 346
303 294 291 290 289 291 292 295 295 296 297 300 301 303 300 300 304 327 332 330 330 330 330 334 336 336 337 338 341 342 341 339 337 335 333 332 333 332 332 333 334 333 335 336 339 342 342 342 343 343 344 345 347 348 348 347 347 348 344 343 343 346 347 348 343 341 349 340 346 342 339 341 339 337 337 346 342 342 343 343 344 344 343 342 340 340 340 341 342 342 342 343 343 342 344 338 340
298 292 291 292 292 295 297 298 298 298 297 299 301 302 302 300 302 314 325 326 326 326 329 331 330 333 337 339 339 339 338 338 336 334 332 331 331 330 331 333 333 333 334 335 337 338 339 340 341 341 342 344 345 346 347 347 345 343 343 343 344 347 346 345 341 344 338 339 341 340 342 339 340 339 340 345 345 345 343 344 343 344 344 345 344 344 343 342 342 342 342 343 343 343 336 333 336
300 295 291 292 295 297 299 299 300 300 300 299 300 300 300 301 302 304 321 323 325 324 324 326 327 328 333 336 337 337 337 337 337 334 333 332 332 332 332 332 332 333 335 336 336 339 338 339 340 340 342 343 344 344 345 345 343 342 341 341 342 341 340 342 339 340 339 339 340 338 340 340 342 339 348 348 350 342 340 345 344 344 345 345 345 345 344 344 344 343 342 341 342 338 332 331 333
297 297 293 293 297 296 299 301 301 302 302 300 298 299 301 302 302 306 325 322 323 325 328 327 327 330 332 335 335 336 336 336 336 335 334 333 333 334 334 334 334 335 337 338 337 338 338 339 339 339 342 342 342 343 343 341 342 341 340 340 339 338 338 337 339 339 337 337 337 340 340 343 340 339 339 340 337 336 336 336 336 336 337 336 343 338 338 339 339 335 333 330 325 327 328 329 331
299 297 300 295 296 297 300 301 301 301 301 299 298 298 300 302 302 304 324 318 319 324 329 331 332 333 333 333 334 336 335 335 336 335 335 332 330 330 331 331 332 333 337 335 337 339 340 342 342 340 341 341 342 342 342 343 343 340 339 339 338 339 340 337 338 339 337 336 338 342 343 337 338 338 337 337 337 337 337 335 336 335 335 337 340 338 336 337 337 335 334 329 325 325 326 327 328
295 297 296 298 299 297 300 302 302 302 300 299 298 300 302 300 299 300 310 302 320 331 333 334 334 334 333 333 333 330 327 327 327 331 331 329 329 330 330 331 331 332 333 333 335 336 338 340 342 341 341 340 340 341 341 342 340 340 340 338 338 337 337 337 337 336 336 339 341 343 336 336 336 336 335 335 336 336 336 336 337 337 336 336 340 338 337 337 336 336 332 328 324 324 325 326 326
297 295 296 298 300 300 302 301 301 298 298 298 299 302 300 299 298 309 318 325 329 336 337 329 326 326 327 327 327 329 329 328 327 328 328 328 330 330 331 331 333 333 332 333 335 336 337 338 341 341 341 338 338 339 340 340 338 338 338 341 340 339 338 337 336 337 340 338 340 341 341 337 335 333 333 334 335 334 335 336 336 338 338 339 341 339 339 338 337 336 333 332 330 330 332 331 330
296 296 298 299 299 300 302 302 302 300 299 299 300 300 299 299 299 318 322 332 335 335 327 325 326 327 327 327 327 327 327 328 327 327 328 329 330 332 332 333 333 333 332 334 335 336 336 338 339 340 340 339 336 337 338 337 336 336 335 335 336 341 336 336 337 339 339 340 341 343 343 335 334 332 332 334 335 334 335 337 337 339 338 339 338 338 338 338 337 335 334 333 332 332 332 332 334
298 298 299 300 300 301 301 301 301 301 302 300 300 300 298 299 324 319 327 333 334 328 325 326 329 326 325 325 325 326 327 328 328 327 328 329 330 331 331 332 333 332 333 334 335 336 337 339 339 340 340 339 336 336 336 335 334 333 334 336 338 343 338 339 340 338 339 340 339 341 340 336 333 332 332 333 333 333 335 335 337 336 336 337 336 338 337 337 335 334 334 333 334 332 331 333 333
299 299 299 300 300 300 301 299 301 301 300 299 299 298 299 299 317 313 328 332 329 327 327 327 325 324 324 324 325 326 327 326 327 328 328 329 330 330 330 332 332 332 333 334 335 336 338 339 339 338 336 339 335 334 333 335 337 337 340 341 341 340 340 339 337 336 336 337 338 340 340 339 335 334 333 332 333 333 334 334 336 336 335 336 336 336 336 336 334 333 332 332 332 332 332 332 333
300 299 299 299 300 301 301 300 299 297 298 299 301 298 298 300 309 317 328 328 328 325 325 324 323 323 323 324 324 326 326 327 328 327 326 328 328 329 329 331 332 332 332 333 335 336 337 337 336 338 339 340 339 338 339 339 339 340 340 340 339 338 338 336 337 337 339 337 338 338 337 337 336 334 334 333 333 332 334 333 334 336 336 336 335 334 336 335 335 334 334 334 333 332 332 332 334
300 300 295 296 299 298 300 299 299 298 299 300 299 297 296 313 312 318 324 325 325 323 322 322 322 323 322 323 324 325 325 327 327 327 328 329 330 331 330 333 332 331 333 335 335 336 335 335 336 337 339 340 339 338 339 339 339 339 339 339 338 338 338 337 337 337 336 336 335 335 335 337 335 333 334 333 335 333 334 333 334 335 335 334 334 335 335 333 334 332 333 333 334 332 331 331 333
299 298 295 294 294 295 299 301 299 298 300 300 299 288 287 311 316 319 322 322 322 320 319 320 320 321 322 322 323 324 325 326 326 328 329 329 330 331 331 333 333 333 333 334 334 333 335 336 337 337 338 338 338 338 339 339 339 338 338 338 339 338 338 337 337 336 335 334 334 335 335 336 336 337 334 334 334 334 333 332 333 335 334 333 333 335 335 332 332 330 330 329 334 330 329 329 329
292 296 296 288 287 290 298 299 297 297 299 300 301 289 289 313 315 318 321 323 320 317 318 319 320 320 321 322 324 324 324 326 327 328 329 330 331 332 332 333 333 333 334 333 332 334 335 335 337 336 338 337 338 337 337 337 338 337 336 336 337 336 336 335 335 335 334 333 333 335 335 337 338 336 336 334 333 332 332 332 333 336 335 333 334 334 333 333 331 330 330 331 328 328 327 330 330
292 289 287 289 289 287 295 300 298 295 299 299 297 289 294 311 313 319 321 321 320 317 317 317 318 320 322 323 324 324 325 326 328 329 330 330 331 331 332 332 333 334 334 333 334 334 333 334 336 335 335 335 335 335 336 336 336 335 335 337 335 334 334 333 333 334 333 335 336 334 337 337 336 335 336 335 333 332 333 333 333 334 334 334 335 334 334 333 333 333 331 329 328 329 329 330 329
290 288 286 286 287 287 292 297 298 299 298 297 299 289 309 312 316 318 320 319 318 316 315 316 319 321 322 322 323 324 325 325 327 328 329 330 331 332 332 333 333 335 334 334 333 333 333 334 335 334 334 334 334 335 335 335 335 334 334 335 334 334 333 334 334 334 334 334 333 333 334 336 334 335 334 334 332 333 335 335 333 333 334 334 333 333 332 332 331 332 330 330 328 326 328 328 328
286 287 284 287 288 287 287 293 296 297 298 294 298 304 309 313 316 316 317 318 317 315 315 317 319 320 321 322 323 323 324 324 324 326 328 330 331 332 333 335 335 335 335 334 333 333 332 332 332 333 333 334 334 334 334 334 334 333 333 333 335 333 333 333 333 334 334 333 332 333 335 336 336 334 335 337 335 335 333 332 332 333 334 333 332 331 330 330 329 329 328 329 330 329 327 326 325
284 284 285 287 288 290 290 291 294 296 296 295 297 310 311 313 314 313 315 317 316 314 315 317 317 318 320 321 322 322 323 323 324 326 328 329 330 331 332 333 334 335 334 333 333 332 331 331 333 334 332 332 332 333 333 333 332 332 331 331 331 332 332 332 333 333 332 333 334 335 335 335 334 332 332 334 334 332 331 330 329 330 332 331 330 328 327 327 327 326 326 326 328 329 326 325 324
287 288 286 286 287 287 288 293 297 298 292 293 295 306 311 312 312 313 313 315 315 315 317 317 317 318 318 319 319 320 321 321 323 324 328 331 332 332 332 332 333 333 333 332 331 331 331 332 332 331 331 332 332 332 332 331 331 330 329 330 330 331 331 332 331 332 332 332 333 331 330 330 330 330 328 329 331 331 329 327 326 328 329 329 328 327 325 324 324 324 324 325 323 325 324 324 323
290 290 289 288 289 289 292 294 296 298 293 292 291 311 312 312 311 312 313 314 314 315 315 316 317 316 316 317 318 318 320 322 325 325 329 331 332 333 332 332 332 332 332 331 331 332 332 332 331 329 331 332 331 330 330 329 328 327 327 327 328 329 331 332 331 330 329 328 327 327 327 327 327 327 327 326 325 328 325 324 324 325 327 325 324 324 325 324 324 324 323 323 322 321 320 320 320
291 289 288 287 289 288 292 293 296 296 294 290 305 312 312 311 310 310 312 313 312 314 315 315 316 316 315 317 318 320 322 325 327 327 329 330 331 332 333 332 332 331 331 331 331 332 332 331 330 331 332 331 330 330 329 328 327 327 327 327 328 329 329 327 325 326 326 326 325 324 324 323 324 325 327 325 323 323 322 322 321 321 322 323 322 322 322 324 321 322 322 320 320 319 317 317 317
291 288 287 287 288 291 293 294 296 295 295 295 309 309 310 309 309 310 311 311 312 314 316 316 316 315 316 317 319 320 322 323 325 326 328 329 331 332 332 331 331 332 331 331 332 331 331 330 331 332 332 330 329 331 329 328 327 328 328 327 329 329 330 327 325 325 324 322 322 322 321 320 320 320 322 323 321 320 320 320 320 319 320 322 318 318 318 318 318 318 317 316 316 318 318 317 315
289 287 285 285 289 289 286 292 294 296 297 302 307 307 307 310 310 310 312 312 314 317 318 318 318 317 317 318 320 320 321 322 323 324 326 328 330 330 331 330 331 331 331 331 332 331 332 332 332 331 330 329 329 331 331 328 329 329 330 330 330 328 325 326 324 322 320 319 319 320 320 319 318 318 319 319 318 318 318 318 318 318 318 319 317 316 316 315 315 315 315 315 314 312 312 311 314
290 290 287 287 288 290 291 290 301 309 310 311 309 307 306 308 306 307 311 316 317 317 318 318 319 318 319 320 321 322 322 323 323 324 325 327 328 329 329 330 331 330 331 331 332 332 331 330 330 329 328 329 329 331 329 330 330 329 331 330 329 327 325 323 321 319 319 319 317 316 316 317 317 316 317 318 319 316 316 316 316 316 316 316 316 315 314 313 313 313 313 313 312 309 308 308 310
289 291 291 290 290 289 292 301 300 298 299 307 306 294 298 306 307 307 312 315 315 317 316 316 318 318 318 318 319 322 323 325 323 324 325 327 328 329 329 330 330 330 331 332 332 331 330 330 330 329 330 330 329 329 329 329 329 328 327 325 323 321 319 319 317 316 315 314 314 315 315 315 316 315 315 316 317 317 315 315 315 315 315 315 315 313 313 313 312 312 312 311 310 310 308 307 306
285 288 292 292 292 291 291 296 299 290 292 303 307 291 289 303 305 308 312 313 314 316 316 317 317 317 316 317 319 320 320 322 324 325 326 327 328 328 329 329 330 330 331 332 331 331 331 330 331 331 330 329 329 328 328 329 327 326 326 324 322 320 319 318 319 318 316 315 315 313 313 314 314 314 314 314 316 316 314 314 314 314 314 314 315 312 311 310 311 312 312 310 309 310 308 305 305
286 293 292 292 292 291 290 292 293 293 296 305 305 296 295 296 304 310 313 312 313 313 315 316 317 316 316 316 318 319 321 322 323 324 326 328 328 328 328 329 330 330 330 331 331 331 330 330 331 330 330 329 327 328 327 328 326 326 325 323 322 320 319 318 318 317 317 317 313 313 312 312 313 313 312 313 314 315 314 312 313 313 313 314 314 311 310 310 310 311 311 310 310 309 307 305 304
289 293 293 291 292 291 291 290 288 288 295 292 299 302 294 295 302 311 313 309 311 311 313 315 315 316 315 316 317 319 321 322 324 325 326 327 327 328 329 329 330 330 330 330 330 330 330 330 329 328 327 327 327 328 328 327 328 326 324 322 321 321 320 319 318 317 314 314 311 311 310 310 311 312 312 311 312 313 315 312 311 311 311 312 314 311 310 310 309 308 308 307 306 307 308 307 304
292 293 293 293 292 292 291 287 287 287 289 286 296 298 287 288 301 307 311 309 309 311 313 315 315 315 316 316 317 318 320 322 324 325 327 327 328 329 329 329 329 329 330 330 330 329 329 328 326 326 326 325 326 327 328 327 326 325 323 322 320 319 319 316 314 312 311 311 309 309 309 308 309 309 310 310 310 311 311 311 310 310 311 312 312 308 309 308 308 308 308 307 306 305 305 305 304
294 293 292 291 290 291 290 288 286 287 282 287 297 298 292 286 300 305 304 306 310 313 314 315 316 316 316 317 318 319 320 322 323 324 326 327 328 328 328 328 328 329 329 329 328 327 327 326 324 322 320 321 323 323 324 323 323 323 322 321 320 318 316 314 311 310 310 310 308 308 308 308 308 307 308 309 309 309 310 312 310 310 310 313 310 308 307 307 307 306 306 306 306 304 303 302 303
292 289 289 287 286 287 286 285 286 280 277 286 294 297 295 286 295 307 311 314 315 314 313 313 314 315 315 316 318 320 322 323 324 325 325 326 326 326 327 326 327 327 327 327 326 325 324 322 319 317 317 318 319 319 319 319 320 320 321 320 319 318 315 313 311 310 310 308 307 306 306 306 306 306 306 307 307 308 309 307 309 308 308 306 306 307 307 307 307 306 305 305 304 304 303 303 301
291 288 287 283 277 279 277 282 278 277 279 283 290 295 289 288 300 308 311 311 315 316 316 315 315 315 315 316 318 321 323 323 324 324 324 324 324 324 325 325 326 325 325 324 323 321 320 319 317 316 315 316 316 317 316 316 316 316 318 318 318 318 315 313 312 311 310 308 307 306 305 305 305 305 305 305 306 307 308 306 306 306 306 307 306 306 306 306 306 305 304 303 303 302 301 301 300
289 287 282 280 277 276 273 275 276 279 285 288 290 295 288 287 293 309 310 312 316 317 318 318 316 316 315 316 318 322 322 323 323 324 324 324 324 324 324 324 325 324 323 322 320 318 318 317 316 315 314 315 315 315 314 314 313 313 314 314 314 314 313 312 311 310 309 308 307 305 305 304 304 304 304 305 305 307 306 307 306 305 306 307 307 306 305 306 305 304 303 303 302 302 301 300 300
289 291 287 281 281 279 274 276 277 279 279 286 292 290 282 286 289 303 313 314 316 318 318 318 317 316 315 317 319 322 322 322 323 323 323 323 323 323 323 323 323 322 321 320 318 317 316 315 314 313 312 312 312 312 312 312 312 312 312 312 313 312 311 311 310 310 308 307 306 305 304 304 304 304 305 306 306 305 305 306 306 304 304 304 305 304 305 304 304 305 304 303 303 302 301 300 299
289 290 289 283 284 282 280 279 279 281 282 283 286 283 292 288 302 307 312 313 315 316 316 316 315 314 315 316 319 320 321 322 323 322 323 323 323 323 322 322 322 321 319 318 317 315 314 314 313 312 311 311 312 311 310 310 311 311 311 311 312 313 313 311 310 310 309 308 306 305 304 304 304 304 305 305 305 304 304 304 304 303 303 304 304 304 303 303 303 302 302 302 302 304 300 299 298
286 289 285 288 290 289 282 281 285 280 282 280 280 293 297 301 306 308 311 312 312 313 313 314 313 313 314 316 318 320 321 321 322 322 322 322 322 322 322 321 321 320 318 316 315 314 314 313 311 310 310 310 310 310 310 310 310 310 309 310 310 310 309 309 309 308 308 307 306 304 304 304 304 304 305 305 304 304 303 303 303 303 303 303 302 303 303 302 302 302 301 301 301 301 300 298 298
287 284 287 290 293 291 285 277 280 277 276 278 286 288 291 289 287 302 308 308 309 310 311 313 312 313 314 316 318 320 320 321 322 323 322 322 321 321 321 321 320 319 317 316 315 315 314 312 311 310 309 308 309 309 309 309 309 309 308 308 309 309 309 309 309 308 307 306 305 305 304 304 303 305 305 305 303 302 303 305 302 302 302 302 302 302 302 302 301 301 301 300 301 301 300 299 299
290 290 292 289 279 282 281 282 277 276 277 276 285 292 292 291 295 302 304 306 307 309 311 311 310 312 313 316 318 321 321 321 321 321 321 320 320 321 320 320 320 318 317 317 316 315 313 311 311 310 309 309 309 309 309 309 309 309 309 308 308 309 309 309 309 308 306 305 304 303 303 303 303 303 303 301 300 301 301 301 301 301 301 302 302 302 302 301 301 300 301 299 299 299 298 298 298
292 293 290 291 286 281 282 283 281 283 275 275 280 289 285 295 301 305 306 307 309 309 310 310 311 312 313 316 318 319 319 320 320 321 320 320 320 320 320 319 318 317 317 316 315 314 312 311 310 309 310 309 309 309 309 308 309 309 308 308 308 309 310 308 307 306 304 304 303 302 301 301 301 301 300 300 299 300 300 300 300 300 301 301 301 301 301 300 300 299 299 299 298 298 297 297 297
286 287 286 288 291 290 290 289 285 282 275 275 275 280 281 290 305 307 308 309 310 311 310 311 311 312 314 317 319 319 319 319 320 320 319 319 319 319 320 319 318 318 317 316 314 312 311 310 309 309 308 308 307 308 308 308 308 308 309 307 308 308 307 307 305 304 303 303 303 303 301 301 300 299 299 299 299 299 299 299 299 300 299 299 299 299 300 300 300 299 299 299 298 297 297 296 298
285 285 282 284 285 285 282 280 287 286 282 277 279 277 282 292 307 310 310 312 311 313 312 312 312 313 315 317 319 319 319 319 319 319 319 319 319 319 318 318 317 317 315 314 313 312 310 309 309 308 308 307 307 307 307 307 308 308 307 307 307 308 307 306 304 304 303 302 302 301 301 300 299 299 299 298 298 298 298 298 298 297 297 298 298 298 298 299 299 299 298 300 298 297 296 296 296
Wind_Speed
10 9 9 9 4 1 3 2 2 3 3 5 5 2 2 1 2 3 3 1 2 3 2 2 5 4 3 4 10 7 3 5 3 8 6 1 3 10 13 15 12 12 12 9 8 8 9 10 13 16 14 17 16 16 16 17 16 17 17 16 16 15 15 14 14 13 14 13 13 13 13 13 12 12 12 12 11 11 10 11 11 11 11 10 11 10 10 10 10 10 9 9 8 8 9 9 9
7 9 8 7 6 2 1 1 3 4 4 5 6 1 2 4 6 4 4 2 2 1 0 7 8 13 15 14 10 6 5 4 2 3 3 5 10 8 14 15 15 15 11 9 8 7 7 9 13 15 15 17 16 16 16 16 16 16 16 16 16 16 15 14 14 14 14 13 13 13 13 13 12 11 11 11 10 10 9 10 10 10 10 9 10 9 9 10 10 9 9 8 8 7 7 7 8
6 7 8 8 3 4 0 3 2 1 2 5 8 2 2 6 8 4 6 3 8 7 8 10 11 9 8 4 3 2 3 5 11 6 5 9 13 6 11 12 12 13 13 9 8 8 6 8 13 14 16 16 16 16 16 16 16 16 16 16 15 15 15 15 14 14 13 13 13 12 12 12 12 12 11 11 10 9 9 9 10 9 9 9 9 9 8 8 9 8 7 7 7 7 7 7 7
3 1 3 3 4 4 2 3 3 2 2 5 8 3 1 3 9 3 2 1 11 11 7 4 4 3 4 5 2 8 5 5 7 14 7 9 6 11 10 13 12 10 9 8 8 8 7 11 13 15 16 15 16 16 16 16 16 16 15 15 15 15 15 14 14 14 13 13 12 12 12 12 11 11 11 11 9 9 8 8 9 9 8 9 9 8 8 8 8 8 7 6 6 6 6 6 6
6 4 1 3 3 4 1 0 1 2 2 2 5 8 5 4 6 8 4 8 6 4 3 4 5 5 2 6 3 2 7 7 9 6 8 6 12 12 12 13 12 11 10 10 9 8 8 15 13 13 15 16 15 16 16 17 16 15 15 15 15 15 14 14 14 14 13 12 12 11 12 11 11 10 10 10 10 9 9 9 9 9 9 8 7 7 7 8 8 7 6 5 5 4 5 5 6
3 6 1 2 1 3 3 1 2 2 7 2 3 8 7 9 6 9 7 4 5 1 4 4 5 5 3 3 1 0 10 7 9 5 11 10 16 16 15 12 12 11 10 9 9 7 8 16 13 13 13 15 16 17 16 16 16 15 15 15 15 15 15 14 14 13 13 12 11 11 11 11 10 9 9 8 8 8 8 8 7 6 7 6 6 6 7 8 8 7 6 5 4 4 4 4 5
4 5 3 3 2 2 4 2 3 4 9 5 4 10 11 10 11 7 5 3 3 4 4 5 13 11 5 0 4 2 2 7 8 7 10 16 17 17 16 12 11 11 10 9 8 8 10 14 13 13 13 15 16 16 16 17 16 15 15 15 15 15 14 14 13 13 12 11 10 11 11 10 10 9 8 7 7 7 7 7 6 6 6 6 6 6 7 8 9 8 7 5 4 3 3 4 5
0 3 1 3 1 2 0 2 3 3 6 4 5 8 14 13 12 6 10 5 3 1 0 9 5 7 1 4 3 3 3 2 9 11 14 17 18 17 15 13 13 11 10 9 7 7 14 13 13 13 14 13 15 16 17 16 16 16 16 14 14 14 13 13 13 12 11 10 10 10 10 10 9 8 8 7 6 6 6 5 6 7 6 6 6 6 7 8 8 8 7 6 4 3 4 4 6
4 1 1 3 1 1 0 3 4 3 5 7 10 10 13 12 8 6 12 3 2 4 10 8 4 8 2 4 2 1 3 12 13 17 16 18 18 17 12 14 15 12 11 9 8 7 8 12 12 13 14 14 15 16 16 16 16 15 14 14 13 12 13 12 12 12 11 10 10 10 10 10 9 8 8 7 7 6 6 5 4 6 6 5 5 6 7 8 8 7 6 6 5 4 4 5 6
2 1 1 2 3 2 1 6 1 5 3 7 7 13 13 9 9 9 10 15 6 8 3 2 1 8 7 7 3 2 5 14 17 15 15 16 16 15 16 14 16 17 12 10 8 8 7 14 13 12 12 13 14 14 14 14 14 14 14 13 12 11 12 12 11 12 11 11 10 10 10 9 9 8 7 7 7 6 6 5 5 5 5 5 5 5 6 7 7 7 6 5 5 5 5 5 6
1 1 2 1 1 3 3 7 4 6 6 6 7 11 11 9 7 8 11 3 13 8 4 8 7 11 7 2 0 2 10 15 17 17 14 15 15 16 14 14 14 15 14 11 10 8 8 9 15 12 11 12 11 11 12 13 14 13 13 12 11 12 12 12 12 11 11 11 10 9 9 9 9 8 7 6 6 6 5 5 5 5 4 4 4 4 5 6 6 6 6 4 3 3 3 4 5
1 0 0 2 4 6 5 4 5 6 6 6 7 11 6 8 6 5 5 8 3 7 8 5 7 8 7 2 0 5 10 12 14 14 15 15 13 14 14 11 12 11 13 13 10 8 8 8 8 13 13 12 11 12 12 14 14 13 12 12 12 12 11 11 11 11 11 10 9 9 9 9 9 7 6 6 6 5 5 5 5 4 3 2 2 3 3 4 5 5 5 4 3 3 3 4 5
2 1 2 2 4 3 4 3 5 6 4 5 7 8 4 9 8 5 3 5 7 6 4 3 16 3 4 2 2 5 10 9 11 14 15 13 13 11 12 12 12 13 11 11 10 8 8 7 7 7 10 14 11 12 13 13 13 13 12 12 11 11 12 11 11 11 11 9 9 9 8 8 8 7 6 6 6 6 5 4 4 3 3 2 2 1 2 3 4 5 5 5 4 4 4 5 6
3 5 5 4 0 4 3 3 1 3 5 5 6 9 3 5 6 6 1 1 2 5 2 12 10 8 6 5 3 7 9 10 13 13 12 13 12 12 13 12 12 11 10 9 9 8 7 6 6 7 8 7 7 10 13 14 13 13 11 11 11 11 11 11 11 10 10 9 8 7 7 7 7 6 5 5 5 5 5 4 3 2 2 1 0 1 2 3 4 4 5 5 5 4 5 5 6
4 1 1 2 2 3 3 4 5 5 8 5 6 7 8 7 8 9 2 3 4 3 11 5 4 8 7 11 6 11 11 12 14 14 14 14 14 13 13 12 11 10 9 8 8 8 7 6 6 5 6 5 6 5 4 9 13 12 11 10 10 10 10 10 10 9 9 7 6 6 6 6 6 5 5 4 3 4 5 4 3 2 1 0 1 2 3 3 4 4 4 5 5 5 5 6 7
5 2 1 2 4 5 5 4 2 4 8 6 9 6 8 14 5 7 3 5 3 4 7 2 3 2 7 15 11 17 15 13 15 16 15 16 15 13 12 12 10 9 8 8 7 6 6 6 5 5 5 5 5 5 5 5 10 12 10 9 9 8 9 9 9 8 8 7 6 5 5 3 3 3 5 3 3 2 2 3 3 1 1 1 2 3 3 5 5 5 4 4 4 4 5 6 8
1 2 3 2 5 5 4 4 4 7 6 7 10 9 6 8 4 3 6 7 14 7 1 1 3 1 13 7 8 18 15 17 17 17 16 13 12 10 10 9 9 7 6 6 5 5 5 5 5 4 5 7 6 5 4 5 8 11 9 9 9 8 7 8 8 8 7 6 5 5 3 1 0 0 0 1 3 0 2 1 1 2 1 2 4 5 5 6 7 7 6 5 5 5 5 6 8
1 4 5 7 5 7 5 8 6 4 5 6 8 12 5 8 1 1 4 10 7 5 4 2 7 5 5 5 16 16 15 19 18 18 15 13 12 11 9 9 9 8 6 6 5 5 5 3 3 3 4 5 6 4 4 4 5 7 4 4 3 4 5 6 4 3 6 1 5 3 1 1 1 1 1 2 1 1 1 1 2 3 2 2 2 4 7 7 8 8 8 8 7 7 7 4 4
6 3 6 12 7 7 7 5 7 2 6 7 8 10 2 7 4 4 5 1 5 5 3 3 7 5 9 14 17 17 17 17 17 17 17 16 14 15 11 9 9 9 7 6 6 5 4 4 4 3 4 5 5 4 4 4 4 3 3 3 3 4 4 3 2 3 2 1 1 1 1 1 1 2 1 3 2 3 2 2 1 3 5 5 5 5 5 6 7 9 9 9 8 8 4 5 5
6 4 8 8 5 6 8 5 7 7 7 8 13 6 3 6 5 4 5 7 4 12 5 1 4 8 12 14 17 16 18 17 15 17 17 15 15 14 13 12 11 9 9 8 8 6 6 6 6 5 5 5 5 4 4 4 4 3 4 3 3 3 2 2 2 1 2 2 2 2 1 2 2 2 5 5 2 1 1 2 2 2 3 5 7 5 7 7 8 7 7 8 6 3 3 3 4
2 6 7 5 6 6 9 10 10 10 10 7 4 5 7 5 4 1 10 9 1 3 10 13 11 14 15 16 17 15 17 16 15 16 16 16 14 10 11 12 10 8 6 7 6 6 6 7 6 6 6 6 5 5 4 4 4 4 4 4 3 3 3 2 3 3 2 3 3 3 3 1 1 2 1 3 2 0 0 0 1 1 1 2 4 3 4 5 5 5 4 3 3 3 3 4 3
1 9 7 4 3 8 8 9 11 11 10 3 6 7 12 4 2 3 11 9 7 10 9 7 16 16 19 16 12 11 12 12 12 15 15 15 14 13 12 11 10 9 8 8 2 4 6 8 7 7 7 6 6 6 5 5 6 5 4 4 4 3 4 3 4 4 2 2 3 3 2 2 2 2 2 2 1 0 0 2 2 1 1 2 2 4 4 4 5 4 5 5 4 2 3 4 3
9 6 4 8 7 5 4 11 13 11 6 7 6 9 3 1 2 3 2 5 9 4 3 9 10 13 17 18 16 16 17 14 11 6 12 14 11 8 11 11 12 11 10 10 10 10 5 4 6 7 6 6 6 5 5 5 6 6 6 5 5 5 4 3 5 2 2 3 4 4 4 4 3 3 2 2 2 2 2 2 2 1 2 2 2 2 3 4 4 5 5 5 4 4 4 3 3
8 9 4 7 9 13 10 10 9 4 8 4 5 1 2 1 3 0 3 4 5 14 19 21 20 20 23 22 21 18 15 11 10 12 14 17 15 13 13 13 10 9 9 8 8 6 5 7 5 7 6 5 6 7 7 6 5 5 5 5 5 5 5 5 3 3 4 4 3 3 3 4 4 2 1 2 2 1 1 2 1 2 1 3 3 2 4 4 4 4 4 5 4 3 3 3 3
12 11 8 7 7 9 12 15 14 8 8 6 3 3 3 4 1 2 3 6 15 19 20 17 17 18 19 22 21 22 19 14 10 12 15 11 10 11 11 10 11 11 12 9 5 7 10 9 7 6 6 5 6 7 7 6 5 4 3 3 5 4 4 3 3 3 2 2 2 3 4 3 2 2 2 1 0 1 1 1 1 1 1 3 2 3 2 3 2 1 0 1 2 3 2 3 3
10 12 7 7 9 8 10 13 14 14 9 4 6 11 5 2 9 7 3 10 16 18 16 16 18 16 13 13 15 17 17 18 18 13 13 13 11 13 11 11 11 12 11 10 10 10 10 9 9 9 9 7 7 6 6 5 4 4 3 3 2 3 4 4 4 3 3 3 3 4 4 2 2 2 2 1 1 1 0 1 1 1 1 3 2 4 4 1 1 0 0 1 1 2 2 2 3
4 9 10 11 12 9 8 11 14 10 6 5 9 10 5 6 6 1 4 10 16 18 17 15 16 14 12 11 11 11 15 14 12 12 6 7 10 11 11 11 12 11 11 11 11 8 7 8 9 7 5 4 6 6 5 4 4 4 4 4 4 5 5 5 4 3 3 3 3 3 3 3 1 1 2 2 1 1 1 2 3 3 3 3 2 1 1 2 2 2 1 2 2 4 3 3 3
6 5 9 12 13 13 12 10 10 4 4 10 15 10 3 3 3 8 9 8 15 19 14 13 12 11 11 11 11 9 12 14 12 15 16 13 11 12 15 13 13 13 12 12 10 8 9 7 7 5 5 6 7 6 6 6 5 5 4 5 5 4 5 5 4 4 4 3 2 3 2 2 2 1 1 1 2 1 2 4 3 3 2 0 1 1 3 2 2 2 2 2 2 3 4 4 4
8 9 7 9 13 13 14 15 9 8 4 8 6 3 2 9 3 2 10 10 11 16 13 11 11 10 10 10 10 9 12 11 10 12 14 13 11 11 13 11 15 13 10 13 12 12 11 9 8 6 8 8 8 8 7 6 5 4 5 5 4 5 5 5 4 4 4 2 1 2 2 0 0 1 1 1 2 2 3 4 3 2 2 1 1 2 3 3 3 4 4 3 4 4 5 6 5
5 7 7 8 7 12 17 13 9 8 4 8 6 6 3 4 3 6 11 12 10 13 10 7 8 8 8 8 9 9 7 7 8 11 12 11 11 10 10 9 12 12 11 9 10 10 7 6 6 7 9 10 9 7 7 6 5 5 5 5 5 5 5 5 5 4 3 1 1 2 2 2 2 2 2 1 1 2 3 2 1 1 1 1 2 3 4 4 3 3 3 3 4 4 5 4 5
7 6 5 7 7 10 11 8 6 8 4 10 6 6 5 3 1 4 8 10 17 12 9 8 7 7 8 8 9 9 7 7 11 11 11 12 11 11 13 12 12 10 10 9 10 11 10 8 7 7 9 9 9 7 7 7 5 5 5 5 5 5 5 5 5 4 3 1 0 1 1 3 3 2 1 1 2 2 2 2 1 0 2 2 4 4 5 3 3 2 2 4 3 3 3 3 4
3 3 9 7 10 2 5 12 8 9 1 7 7 5 6 4 4 3 4 4 13 13 9 7 7 7 9 10 10 9 8 7 9 11 14 14 14 14 15 16 13 13 12 12 11 11 10 8 8 10 8 10 8 7 6 7 6 5 5 5 5 4 5 5 5 4 2 1 1 2 1 1 1 2 1 1 2 2 1 2 2 2 3 4 4 4 5 5 3 4 3 2 4 4 4 5 5
4 9 5 7 7 5 3 9 9 11 4 4 11 5 6 1 4 4 3 8 11 14 9 7 9 10 9 9 8 9 11 9 9 11 12 12 12 14 14 15 14 13 13 14 13 11 10 8 9 10 9 10 9 7 7 6 6 6 5 5 5 4 5 5 4 3 3 4 2 1 0 0 2 2 2 1 1 2 2 4 2 2 2 4 5 6 6 5 4 4 5 3 2 3 4 5 6
8 3 7 4 7 3 6 3 5 8 9 4 0 9 5 4 7 3 3 8 12 14 10 9 9 7 8 8 9 12 11 12 12 11 12 9 10 11 12 11 11 11 10 10 11 11 10 8 7 8 7 8 8 8 7 7 6 6 5 5 5 6 5 4 4 4 4 3 2 2 1 3 3 3 2 2 3 4 4 4 3 4 5 6 7 7 6 5 5 5 5 5 5 5 6 6 6
7 3 3 2 2 9 6 7 5 6 5 7 3 7 8 8 6 3 4 4 13 13 13 12 10 9 8 8 7 8 10 11 11 6 4 2 1 1 1 4 7 7 8 10 9 9 8 7 7 7 8 7 7 7 7 7 7 6 5 6 6 6 5 5 4 5 4 3 4 4 4 6 6 6 5 4 5 6 7 6 7 7 7 7 7 7 6 6 6 5 5 6 5 6 6 5 5
4 3 4 5 7 7 8 6 4 10 4 6 7 8 9 10 6 5 4 4 10 11 10 9 7 6 6 6 6 7 7 7 3 4 3 3 3 5 5 4 6 7 8 8 9 8 9 8 6 6 5 6 7 7 7 7 6 6 8 6 7 6 6 6 6 6 5 6 6 6 7 7 7 7 8 8 8 7 7 7 8 8 8 7 6 6 6 6 6 6 6 5 6 5 7 7 7
3 4 4 7 7 2 3 4 4 9 3 7 4 11 13 11 9 7 7 7 8 14 14 10 8 8 8 7 7 7 8 8 5 5 4 4 6 6 6 5 6 7 8 9 8 8 8 8 8 7 4 5 7 7 6 7 7 6 5 6 8 5 6 6 6 6 7 6 6 7 7 6 6 8 8 8 7 7 6 6 7 7 6 6 6 5 5 6 6 5 4 4 6 6 7 8 8
8 5 4 7 7 8 4 5 4 4 6 1 8 13 10 10 4 3 4 9 13 16 14 12 12 7 7 9 9 9 8 7 8 7 5 4 7 8 5 5 6 9 7 8 9 8 7 7 7 6 5 4 5 5 6 5 3 5 7 7 8 7 7 7 7 6 6 6 7 7 6 6 7 7 6 6 6 5 6 6 7 6 5 5 5 5 6 6 7 7 5 5 4 5 5 8 8
9 6 4 4 7 4 2 3 4 2 5 1 10 12 7 4 3 2 5 4 3 2 7 13 14 10 7 7 8 9 10 11 8 8 5 5 8 6 5 3 3 6 7 7 8 9 7 6 6 6 5 4 4 4 5 5 3 4 6 5 8 7 5 6 6 6 7 8 7 7 6 6 7 7 6 5 5 5 6 7 6 5 5 4 6 7 6 7 6 7 6 4 4 4 4 6 8
8 6 4 7 2 6 7 5 5 1 4 8 7 11 5 3 2 2 3 3 4 5 7 8 7 12 11 11 10 11 12 11 10 9 6 7 6 5 5 5 4 4 6 7 7 8 6 6 5 5 4 3 4 4 4 4 5 6 7 7 6 7 7 7 7 6 7 8 8 6 7 7 7 6 5 4 5 6 7 6 5 5 5 5 5 6 7 7 7 7 6 7 3 5 5 6 7
10 8 4 5 4 6 7 4 3 4 9 16 12 8 3 2 4 3 1 5 8 9 10 7 5 4 5 7 7 8 13 10 11 10 6 6 7 6 6 6 6 5 5 6 6 6 5 6 5 5 5 4 4 4 5 5 7 7 7 8 9 9 6 6 6 6 5 7 7 7 6 6 6 6 5 5 6 7 6 5 5 5 6 5 6 7 7 7 6 6 7 7 7 3 5 4 7
9 9 9 6 4 4 3 7 8 4 3 4 18 3 2 2 4 3 4 6 9 9 12 11 10 9 9 10 11 10 10 12 16 15 12 9 9 8 8 9 7 6 6 5 5 7 7 6 6 6 5 5 5 5 4 6 6 8 9 9 8 6 6 5 6 6 5 6 7 5 6 6 5 4 4 6 6 6 6 5 5 6 6 6 6 6 6 7 8 8 6 6 7 6 4 7 6
7 7 8 8 8 5 4 5 7 3 7 9 5 11 3 2 8 8 9 10 11 10 10 12 12 11 10 10 11 10 10 10 10 13 13 11 9 9 9 9 8 7 6 6 7 7 7 6 6 6 5 6 5 5 5 6 6 5 6 6 7 7 8 5 4 4 6 5 6 7 6 5 4 5 5 6 6 6 6 6 5 6 6 6 6 7 8 7 6 6 6 7 6 6 6 8 7
10 3 6 8 10 9 4 4 5 3 1 1 9 3 9 6 7 7 10 12 12 12 13 13 12 13 10 8 9 10 10 12 11 11 12 11 9 9 9 9 8 7 7 8 7 7 7 7 7 7 5 5 4 5 5 5 6 6 7 7 7 7 7 7 6 5 5 6 7 6 6 6 6 6 6 7 7 6 6 6 6 6 7 7 7 7 7 5 6 7 7 7 7 6 6 7 7
5 2 5 5 7 7 5 5 7 3 6 3 6 1 5 3 4 7 13 13 13 15 16 14 15 14 11 9 10 12 12 11 11 12 13 12 12 10 9 9 8 8 8 8 7 7 7 6 6 6 6 5 5 4 5 4 4 6 7 7 7 6 7 6 5 5 6 6 8 6 7 6 6 7 7 7 7 6 6 6 6 7 8 7 6 6 6 7 7 7 7 8 7 8 7 6 8
5 6 3 4 4 3 6 6 8 3 3 6 11 7 5 3 5 11 12 11 15 13 14 15 15 15 13 12 11 11 9 8 9 9 10 9 10 10 9 9 9 8 8 9 8 7 6 6 6 6 5 5 4 4 4 4 5 6 7 7 9 7 6 6 5 6 6 6 8 7 6 6 6 7 7 7 7 6 6 7 7 8 7 7 6 6 6 7 6 6 6 6 8 9 8 8 9
2 5 6 7 3 1 1 4 4 3 5 9 15 15 7 4 10 14 15 16 19 12 10 9 11 12 11 11 12 12 11 10 9 10 9 9 9 11 11 10 9 9 9 9 8 7 6 6 6 6 5 5 4 4 4 5 4 5 7 7 9 9 7 7 7 6 6 7 8 7 6 6 6 6 6 6 6 6 7 7 7 7 6 6 6 6 6 6 6 6 7 8 10 10 8 9 9
5 5 5 2 7 1 1 2 1 5 6 9 11 15 8 7 5 10 13 8 17 20 19 20 19 19 15 13 12 11 11 10 10 10 11 10 11 11 11 11 10 10 10 9 7 7 6 6 7 8 6 6 6 6 6 5 5 4 5 6 8 7 8 6 7 7 7 9 8 7 6 6 6 6 6 6 6 6 6 7 6 6 7 6 6 5 6 6 6 7 8 8 8 9 9 9 8
10 8 3 7 2 3 4 2 5 8 8 5 9 11 3 10 8 18 21 11 17 19 20 22 21 20 16 14 14 11 10 11 11 9 10 10 9 11 11 11 11 11 10 10 8 7 7 7 8 10 7 6 7 7 7 6 6 5 5 6 5 6 6 6 6 7 7 8 7 7 6 6 6 7 6 6 6 6 6 7 7 7 6 6 6 6 6 7 7 7 8 9 9 9 8 9 9
12 13 6 7 6 4 5 3 1 3 6 5 7 15 8 3 3 16 23 20 22 23 19 20 23 21 18 15 14 11 11 11 10 10 11 10 9 10 11 10 11 11 11 10 9 9 7 7 7 9 7 6 6 8 8 8 6 6 6 6 6 7 7 6 6 8 7 8 7 7 6 6 6 6 6 6 5 5 6 5 6 6 5 5 6 6 7 6 7 7 8 8 8 8 9 10 11
13 6 8 7 5 4 4 3 7 8 6 3 4 8 5 5 2 4 20 21 16 15 10 11 12 11 13 13 12 12 13 12 11 10 11 10 11 12 11 10 10 11 11 10 9 9 8 7 8 9 8 7 8 8 8 8 7 7 7 7 7 7 7 7 7 7 8 9 7 7 6 6 6 5 6 5 6 6 6 7 6 7 6 6 7 7 7 7 6 6 6 8 8 8 9 10 10
6 4 6 4 8 6 4 6 7 5 3 2 3 3 0 2 4 3 7 7 8 11 12 12 11 10 12 13 13 13 13 13 12 11 12 12 11 12 11 10 10 10 11 10 10 9 8 7 7 8 8 7 8 8 7 8 7 6 7 8 7 8 7 7 7 6 7 8 8 7 6 6 6 5 5 6 5 6 6 7 7 7 7 7 7 7 7 6 5 6 6 7 9 7 9 10 8
5 8 10 10 6 6 1 0 0 3 5 3 2 3 0 1 8 8 11 11 10 12 12 14 11 12 13 14 12 13 13 13 12 12 12 13 12 12 12 11 11 11 10 10 9 8 9 8 9 9 7 7 8 8 8 7 7 7 6 7 7 7 8 8 8 9 9 8 8 6 6 5 5 5 6 5 6 6 6 7 7 7 7 6 7 6 6 6 6 6 7 8 9 8 8 8 7
5 8 9 2 3 4 5 4 1 1 5 3 2 6 3 3 1 2 7 13 11 14 15 15 13 14 16 15 14 14 15 14 14 12 12 14 13 13 13 10 11 11 11 11 10 8 8 8 9 10 8 8 6 8 7 7 8 7 6 6 6 7 8 8 9 9 8 8 7 5 5 6 5 5 5 5 6 7 7 7 7 6 6 6 6 6 6 6 6 7 7 8 7 7 7 6 7
7 9 7 10 5 9 3 3 4 1 3 1 0 5 7 7 7 6 9 14 13 13 14 14 15 16 17 16 15 13 14 14 14 14 13 14 14 13 14 12 12 12 12 11 10 10 8 7 8 9 9 8 7 6 6 6 6 6 5 6 7 7 7 7 7 8 7 8 6 5 5 5 5 6 7 6 7 7 7 7 6 6 6 6 6 6 6 6 6 8 7 7 7 7 7 6 5
3 3 7 6 5 4 4 6 4 7 4 3 0 1 3 5 11 18 18 18 18 17 16 19 20 20 17 16 15 15 15 15 15 14 13 14 15 14 15 14 14 14 13 12 12 10 10 9 9 8 7 7 7 7 6 7 5 6 5 5 4 5 6 7 7 8 8 7 6 6 6 6 6 7 7 7 7 7 7 7 6 6 6 6 6 5 6 6 7 7 7 7 6 7 7 6 5
5 4 2 2 4 3 5 1 5 4 4 4 5 1 6 6 10 18 18 18 19 22 22 19 18 18 17 17 16 15 15 15 14 14 13 14 14 13 12 13 13 12 11 11 11 11 10 9 9 9 10 8 7 6 6 6 6 6 6 6 5 6 7 7 8 8 7 6 6 6 6 6 7 7 7 8 7 7 7 7 7 7 7 6 6 6 5 6 7 7 6 6 5 6 6 5 5
6 7 5 5 7 4 6 7 1 3 5 3 6 5 6 8 8 16 20 19 20 21 22 19 19 19 18 16 16 15 15 14 14 13 13 13 13 13 12 11 12 12 11 12 10 10 10 9 9 9 8 7 8 6 6 6 5 5 5 5 5 6 7 7 8 7 7 6 6 6 6 7 8 6 7 8 7 6 6 7 7 7 7 7 7 7 6 6 7 7 6 4 6 6 6 5 5
Wind_Direction
329 335 320 317 306 155 82 3 41 311 38 302 292 19 256 249 280 29 292 179 37 284 289 58 90 135 159 177 142 127 41 140 203 143 216 195 92 122 120 129 130 128 132 139 147 146 144 143 145 141 137 134 130 128 125 122 117 117 113 111 110 109 108 106 104 102 100 98 100 96 94 92 94 95 97 100 102 100 99 95 89 85 83 88 84 79 77 76 76 75 79 78 78 87 86 82 75
322 329 318 317 317 59 343 77 96 351 25 350 286 113 249 304 358 343 283 134 166 209 2 93 84 80 90 109 123 113 34 18 87 116 89 110 107 112 131 137 140 135 137 140 138 135 141 146 143 141 137 134 132 130 127 122 119 117 114 113 113 111 110 109 106 102 101 101 100 98 97 97 93 92 96 98 97 97 98 104 103 99 96 86 82 79 73 71 70 69 70 77 79 82 79 74 70
328 344 336 345 20 56 339 46 17 12 17 317 288 236 309 359 316 307 349 145 131 134 111 88 90 87 101 42 49 96 233 85 95 108 108 143 118 148 136 133 132 130 133 133 133 134 140 145 143 142 137 134 133 130 127 123 120 117 116 115 113 114 111 110 106 103 102 102 102 102 100 99 100 100 98 98 98 101 101 98 96 94 90 84 78 73 71 70 69 68 69 73 73 75 73 71 64
318 326 27 20 345 31 57 17 103 123 285 240 297 273 278 288 287 270 130 200 144 142 134 135 76 296 125 84 138 83 107 149 155 138 142 170 154 140 138 130 127 124 125 128 133 136 139 144 143 141 137 136 135 131 127 124 120 118 117 116 115 113 112 110 109 106 104 101 100 102 102 101 101 101 102 102 104 107 106 102 99 92 82 74 69 61 55 57 62 64 61 59 65 67 66 62 55
344 303 136 87 105 6 80 274 140 98 268 229 266 292 293 269 277 307 290 158 221 169 127 127 96 18 51 120 181 174 188 106 143 157 128 118 127 135 131 129 129 129 130 133 133 135 141 143 142 139 139 138 135 132 128 124 121 120 119 117 116 114 114 114 112 108 105 104 102 100 102 100 99 99 99 100 92 81 80 79 80 79 77 74 71 65 58 54 52 54 59 62 63 63 61 54 50
331 8 7 86 79 188 49 26 332 276 240 172 271 280 284 285 288 289 290 277 191 85 141 128 145 158 60 322 40 30 134 155 163 151 136 142 138 135 133 134 131 130 130 128 134 136 143 142 143 142 139 138 137 132 127 124 122 121 120 118 118 118 117 114 111 110 107 104 105 104 101 103 103 102 101 100 100 93 92 94 96 91 80 78 74 63 56 53 54 52 54 58 52 49 38 38 40
348 6 358 24 358 54 157 156 230 219 274 162 244 278 284 289 290 308 313 72 338 80 303 123 107 93 76 266 25 30 338 113 145 154 149 140 133 135 138 134 128 125 126 129 131 136 139 143 144 142 140 140 136 131 128 124 123 124 124 123 121 118 116 115 112 108 106 106 105 105 103 104 106 105 107 109 110 100 91 83 68 85 87 72 63 52 50 49 49 50 48 49 51 35 31 29 31
340 81 303 84 290 50 120 189 235 161 271 194 233 264 282 287 293 305 298 272 229 200 213 133 124 96 166 32 149 286 64 43 108 122 127 131 136 138 135 130 124 123 124 127 129 135 140 138 139 139 138 137 134 131 129 126 126 126 124 121 119 117 117 114 111 109 109 107 106 104 105 105 105 106 105 105 102 113 112 103 79 75 77 69 58 52 47 46 49 48 46 47 44 28 21 22 22
4 65 324 71 332 16 43 238 240 237 270 283 277 263 269 277 286 286 283 241 94 140 163 166 179 97 227 73 58 277 54 106 115 124 131 134 137 136 129 131 129 129 128 130 133 134 134 138 136 136 137 136 133 132 130 128 127 123 122 120 115 117 117 116 118 117 112 110 108 108 109 108 107 107 108 109 111 106 104 105 95 84 78 72 62 52 45 46 48 50 50 44 38 28 16 14 14
2 87 298 148 132 248 326 293 309 246 239 262 264 280 284 290 295 292 293 284 170 140 156 89 36 107 121 99 119 52 128 120 123 124 136 138 134 130 130 134 132 130 132 132 130 130 141 138 132 133 134 134 133 133 130 128 127 123 119 115 118 118 118 117 118 119 118 118 116 115 114 112 110 111 112 112 111 111 109 103 89 83 79 69 57 49 47 47 48 47 50 56 46 23 11 3 359
337 350 156 94 321 236 234 267 258 297 276 280 294 274 276 294 290 281 270 244 146 142 124 115 64 115 101 84 265 267 132 132 133 140 144 134 132 130 126 129 130 132 132 132 131 135 137 134 135 132 130 130 129 126 126 126 122 115 115 119 121 120 119 122 123 122 121 120 123 124 122 121 120 118 117 113 113 111 109 104 96 96 83 70 55 42 46 45 46 45 45 45 41 28 10 347 344
7 268 95 143 202 182 224 222 259 262 278 301 283 281 291 293 282 276 293 116 188 137 147 154 154 129 86 118 237 136 143 143 139 136 136 132 128 127 125 125 124 124 126 129 129 128 131 137 133 134 130 126 124 124 127 123 118 117 120 123 121 121 124 125 125 126 129 129 131 135 132 125 123 121 117 114 111 114 112 113 111 104 104 84 66 55 46 41 40 39 35 35 32 10 352 333 334
175 157 95 120 221 182 213 213 256 268 303 273 265 283 308 310 294 250 284 113 181 151 166 204 139 131 112 167 171 142 153 155 136 134 132 128 121 119 116 117 118 117 120 121 122 125 126 125 130 123 128 129 122 125 128 120 117 119 122 123 125 126 129 129 131 133 132 137 146 146 136 128 125 126 121 116 113 110 110 111 118 118 115 119 92 72 51 34 31 27 26 21 19 360 338 329 322
164 185 138 225 188 181 176 220 236 274 272 255 271 272 294 287 295 285 175 4 190 198 154 132 132 119 92 101 157 171 169 154 134 129 121 115 112 111 110 109 111 112 114 115 118 117 115 117 121 127 126 122 128 125 127 124 121 120 124 128 131 132 134 134 135 138 141 151 148 140 133 131 129 128 129 124 115 115 118 116 118 128 136 126 101 41 27 24 17 11 13 16 10 357 332 318 316
207 198 107 166 232 153 219 204 205 232 264 264 262 292 303 276 280 303 226 145 15 121 113 95 165 108 203 163 182 190 167 153 126 119 115 108 106 105 105 106 107 109 107 106 108 113 112 115 116 112 118 120 119 122 127 129 123 125 128 133 136 137 137 138 139 141 147 144 146 142 139 135 136 138 134 131 131 129 123 119 123 139 138 166 352 346 346 350 355 355 1 360 355 348 335 319 308
194 126 156 186 223 188 272 206 213 237 263 253 270 275 294 288 277 261 251 147 136 111 128 151 241 226 179 184 186 163 158 128 126 117 113 110 107 104 104 104 103 102 101 102 100 93 102 106 108 112 113 120 122 129 131 129 131 133 136 138 142 141 140 140 141 142 143 146 149 148 144 140 146 147 148 144 145 131 122 135 123 105 15 359 331 331 325 331 325 329 338 348 343 339 331 318 310
108 145 249 191 252 188 235 205 179 234 240 258 277 281 267 280 305 41 1 101 124 166 240 73 236 52 175 182 126 140 140 123 123 121 117 115 113 106 102 100 100 93 95 84 86 93 95 103 109 111 117 132 133 131 129 129 141 141 145 148 147 147 146 147 145 146 147 156 150 152 128 70 67 335 82 156 158 162 290 331 92 115 38 348 335 327 325 322 317 313 316 325 331 323 319 315 311
153 214 194 232 192 207 197 208 192 199 224 262 268 262 250 274 320 180 52 35 76 66 66 11 34 41 112 106 135 139 125 130 131 128 128 124 118 113 108 105 107 112 109 95 81 97 107 106 114 120 127 130 138 137 135 141 146 144 140 144 150 150 154 153 143 148 157 153 161 145 123 188 219 253 285 220 169 211 232 234 337 350 356 351 344 319 318 318 315 313 315 318 314 314 309 319 311
192 192 180 224 180 216 188 205 220 210 231 233 255 268 244 249 154 200 89 178 105 67 17 359 77 55 99 124 135 138 127 133 134 129 130 126 122 118 117 116 116 124 123 119 115 121 127 128 145 149 147 145 144 144 148 148 138 134 138 155 157 160 177 155 150 165 99 139 91 157 172 250 246 239 223 257 191 190 192 205 192 322 334 332 330 319 306 304 305 304 308 310 305 297 312 318 313
226 169 218 223 209 219 231 214 237 224 243 258 262 305 271 260 198 181 146 159 150 144 134 12 133 141 135 137 141 139 136 138 134 131 127 121 117 116 120 127 136 137 133 135 137 141 149 159 167 166 163 160 151 153 146 140 134 134 162 164 172 158 194 133 164 205 163 167 179 179 229 239 249 250 255 271 228 135 211 190 211 271 296 319 316 325 324 318 310 302 291 289 301 307 317 312 312
232 198 221 209 214 216 224 226 234 247 239 250 327 303 294 265 255 132 124 108 259 252 189 157 180 157 153 148 145 139 137 137 133 131 124 120 109 125 135 136 131 109 96 108 123 149 169 171 169 172 172 166 152 151 151 148 144 151 182 183 173 181 184 167 179 222 192 168 194 188 214 191 106 118 104 80 73 33 353 315 305 277 283 300 297 303 305 302 311 305 305 298 264 269 282 275 273
269 226 221 192 207 226 230 225 232 234 244 309 288 296 271 293 334 88 140 143 197 204 222 204 159 153 150 146 130 117 112 115 126 127 125 113 123 130 122 103 89 102 109 104 112 196 200 178 173 177 176 167 161 158 156 165 160 179 188 194 185 201 193 196 199 214 213 177 166 156 163 142 109 109 91 88 61 77 11 323 294 268 286 268 276 272 276 281 288 285 288 293 297 279 256 252 252
233 255 221 213 212 211 218 234 234 233 251 251 262 245 231 274 281 290 170 182 216 195 90 53 61 63 63 57 60 50 40 37 30 71 111 95 94 131 121 124 133 136 140 144 157 176 191 179 181 173 173 166 165 155 163 175 183 188 185 189 185 201 200 206 224 175 159 140 152 173 152 107 98 85 63 50 48 20 359 330 305 281 269 272 243 242 265 262 271 284 285 283 290 291 285 275 258
227 238 220 238 215 227 236 246 231 198 186 224 230 282 178 292 332 335 36 334 86 73 77 80 84 88 89 91 91 93 90 76 70 83 84 122 154 144 135 130 128 125 127 145 177 155 144 190 189 171 179 176 174 167 174 186 186 188 194 193 198 198 186 210 206 157 151 168 157 149 110 104 114 101 78 42 28 35 334 273 281 313 334 296 294 283 284 289 282 274 285 294 291 296 323 316 310
222 237 227 243 239 234 231 241 249 243 244 237 224 204 243 217 222 70 14 70 90 90 92 97 96 95 101 109 116 119 120 124 130 132 139 156 147 131 123 122 131 142 146 148 165 166 181 183 185 190 199 181 179 174 180 189 183 184 195 198 206 199 186 189 136 121 157 154 139 123 102 108 106 121 101 78 54 41 303 347 307 313 300 284 308 306 304 299 318 341 289 297 328 321 305 310 329
227 227 229 234 237 237 229 236 241 239 248 200 252 266 253 221 93 42 38 92 98 96 91 98 105 108 109 114 115 122 136 141 143 138 153 149 142 131 128 134 145 151 150 150 167 187 182 176 184 194 204 188 172 169 183 186 167 163 174 172 150 102 100 111 118 124 123 108 85 90 107 117 145 128 134 146 120 109 349 354 331 38 11 340 8 15 2 33 49 332 308 303 304 306 314 321 346
165 221 226 230 239 240 239 224 236 231 229 181 216 227 236 217 112 124 80 110 105 101 108 117 117 115 111 117 126 127 125 124 142 135 107 123 139 134 141 145 152 155 150 156 175 182 170 181 190 195 212 168 151 164 167 153 134 148 139 130 116 120 121 109 100 101 79 71 68 71 118 144 140 157 151 155 145 146 121 82 37 24 32 9 11 62 120 132 131 88 25 0 1 359 343 328 353
265 217 225 238 243 240 246 239 234 153 226 206 203 210 220 336 73 135 138 112 120 117 124 117 111 120 127 138 130 131 130 146 154 141 147 151 155 154 158 158 152 154 156 167 170 167 176 176 163 162 152 132 134 138 133 129 132 138 139 113 97 103 103 95 90 79 77 65 83 124 120 112 133 176 146 134 115 94 55 49 28 45 42 28 116 93 80 64 52 31 29 17 0 5 345 356 351
236 234 252 244 240 245 241 243 238 159 219 180 170 106 28 343 92 25 116 131 130 118 116 114 122 132 133 132 127 135 143 155 147 144 154 154 159 164 155 156 151 154 167 168 169 174 172 153 143 153 125 116 120 127 126 125 130 128 110 97 99 99 100 103 97 86 82 79 94 60 60 33 28 359 357 38 54 64 63 59 34 24 350 324 30 69 73 56 43 23 16 11 11 10 6 350 346
246 228 222 253 250 241 237 237 230 159 221 176 152 208 281 295 317 132 135 132 114 104 110 116 118 127 128 129 130 136 148 144 145 151 151 152 155 155 145 161 160 157 163 169 166 162 146 140 142 135 121 117 120 122 123 121 120 112 105 104 107 104 100 102 94 88 93 128 78 88 102 95 51 20 337 313 35 64 69 58 46 337 299 4 34 50 56 53 50 33 12 27 12 13 0 338 343
229 238 202 216 217 236 233 224 209 180 192 173 149 199 253 277 229 174 143 144 128 118 121 125 125 122 127 132 136 141 150 156 151 149 143 149 152 153 155 162 171 165 158 162 160 148 150 150 144 125 124 120 119 120 121 119 120 114 106 104 107 111 111 108 100 99 124 173 227 102 71 103 112 107 26 340 62 63 64 65 24 332 6 27 43 49 62 44 43 24 10 19 7 2 349 334 343
268 200 226 213 205 280 226 225 196 181 207 169 108 179 221 192 208 194 167 155 121 116 117 119 127 129 132 137 139 142 144 146 146 148 156 160 160 160 164 168 170 171 167 155 141 150 146 148 135 124 124 120 118 119 116 116 115 108 108 109 104 103 104 94 96 109 119 82 51 20 2 80 125 112 139 174 125 152 131 63 8 359 32 61 70 56 50 34 13 12 2 48 13 347 356 347 350
224 207 229 214 187 235 223 224 201 192 148 227 179 192 125 238 232 224 176 135 119 116 119 127 134 139 137 142 147 146 138 141 147 157 166 167 168 161 166 170 174 166 159 147 149 144 137 135 131 124 126 123 120 114 112 109 109 105 103 104 101 93 86 86 81 91 84 78 73 95 159 72 64 83 75 40 40 49 60 75 68 67 64 69 64 50 41 23 25 11 1 2 36 350 7 357 349
252 200 211 204 182 180 210 281 193 176 171 207 158 130 203 164 167 190 150 143 124 124 136 140 144 152 153 147 150 148 145 146 157 170 171 170 168 171 174 170 158 156 144 133 136 137 133 134 127 122 120 120 123 122 117 112 105 101 98 98 96 84 77 72 74 76 74 64 51 54 39 59 60 62 92 140 138 118 98 90 71 49 50 53 52 45 34 20 23 30 12 5 20 37 29 13 351
207 198 155 257 145 174 188 171 227 137 186 189 76 71 138 149 155 154 153 179 134 140 147 150 152 157 153 148 152 153 151 156 161 145 118 75 68 34 88 125 131 128 120 125 126 123 120 120 115 116 119 121 119 116 112 104 103 99 95 95 85 81 75 68 72 70 57 46 46 37 33 38 40 43 46 55 67 59 54 47 46 35 42 46 49 44 30 21 23 20 30 9 19 44 32 11 344
167 152 177 183 176 206 195 198 192 174 154 212 150 143 151 157 168 161 154 174 136 131 134 140 144 144 141 150 150 154 147 130 115 115 86 62 77 88 84 92 103 105 106 110 118 119 118 110 109 106 119 127 121 113 116 112 113 116 111 98 85 84 82 81 62 64 58 56 46 44 41 37 35 35 33 33 39 43 42 37 42 39 40 43 44 43 33 30 23 17 18 21 15 25 27 9 353
257 182 185 203 197 242 216 198 216 155 132 206 171 141 157 170 172 166 159 143 130 139 149 152 155 156 160 157 158 153 146 142 129 112 92 81 85 93 96 100 106 101 107 118 120 121 122 126 129 132 140 135 132 131 129 133 127 110 97 107 110 105 101 90 77 71 69 67 62 56 50 41 38 42 39 38 38 41 41 38 46 40 40 48 50 41 42 42 33 32 16 28 30 32 23 7 358
260 250 207 231 191 207 205 187 228 173 165 278 116 139 161 162 163 149 146 151 162 157 154 159 160 164 163 157 155 152 133 117 114 119 114 76 99 96 104 121 135 123 124 125 123 124 124 125 130 134 137 138 136 132 130 122 116 134 132 130 119 110 108 102 97 77 76 69 62 58 56 50 43 42 40 40 40 36 41 41 43 40 40 49 58 49 50 46 39 35 21 22 23 46 41 9 2
256 235 227 235 236 187 248 207 200 208 150 149 137 129 154 148 130 126 160 146 109 117 155 160 156 161 157 158 150 138 137 128 129 133 118 104 100 96 100 119 127 125 124 118 120 121 122 121 128 134 135 133 122 116 118 125 110 113 119 125 122 113 86 100 97 93 88 82 71 66 62 53 50 44 39 44 47 42 46 50 48 48 46 48 59 52 50 48 39 39 33 36 1 27 45 21 15
241 249 206 223 228 160 229 246 207 140 152 150 139 114 96 63 68 106 160 122 128 116 141 149 169 159 160 163 156 149 140 135 134 149 141 122 116 114 119 120 126 122 111 114 121 123 121 122 128 123 117 104 109 108 103 99 107 102 98 113 96 100 119 106 96 89 84 80 71 67 59 59 55 51 43 47 54 51 53 57 55 53 50 49 68 67 53 50 41 36 33 33 36 43 21 16 17
236 218 203 212 222 211 175 219 87 84 42 114 98 83 43 136 154 164 118 119 119 129 133 136 146 136 140 137 142 151 144 137 131 142 169 153 142 145 139 132 132 126 124 127 130 129 123 125 118 110 106 107 98 99 102 114 107 98 102 96 102 103 91 96 97 81 81 88 85 66 63 59 57 56 48 51 57 57 56 56 60 58 60 53 63 65 59 52 50 46 42 48 40 62 43 22 14
245 234 204 209 225 231 222 115 122 36 87 196 132 36 252 224 191 175 152 136 141 145 145 158 162 156 160 163 159 157 158 155 148 159 179 176 160 148 144 141 143 139 133 130 121 115 118 116 109 106 109 98 100 102 114 120 127 132 130 130 125 113 108 103 107 120 112 100 98 98 74 66 68 66 59 59 60 61 58 54 56 62 63 61 61 66 61 56 48 49 42 56 52 38 87 52 27
215 237 173 209 232 224 110 179 86 150 165 222 259 165 218 239 189 193 168 164 157 152 160 164 167 173 180 176 166 158 149 149 173 166 163 175 162 154 150 146 146 142 132 122 114 115 115 111 111 115 111 107 107 112 116 119 115 119 124 122 124 126 118 100 109 116 117 116 109 94 90 76 71 72 61 61 62 63 61 56 62 68 70 67 64 62 59 57 58 58 52 54 52 48 45 62 40
232 185 144 196 217 222 167 184 178 199 303 242 187 132 150 183 205 189 169 166 170 162 167 168 170 185 187 174 163 160 167 177 173 169 164 165 164 159 152 145 149 143 131 123 116 118 120 121 122 119 109 109 113 118 114 122 127 127 118 114 116 118 121 132 135 125 116 119 102 99 94 83 73 68 69 61 60 60 62 60 62 66 67 64 64 62 65 61 63 54 54 52 52 50 51 60 55
233 187 172 219 201 211 163 178 249 208 121 176 221 131 73 210 171 163 165 174 181 174 170 176 176 187 182 172 173 176 181 179 169 168 174 165 158 156 151 151 139 135 136 126 122 120 121 123 120 113 115 117 126 123 123 128 128 126 124 126 116 112 122 125 122 116 112 107 96 87 84 78 70 65 62 64 59 57 59 63 61 63 64 60 63 60 56 58 62 63 55 52 53 50 50 57 63
252 254 202 219 221 197 153 196 212 232 152 211 207 200 133 192 171 178 176 181 191 184 178 181 182 186 183 176 179 180 179 176 174 164 165 156 150 150 145 134 134 136 128 120 117 121 127 129 124 118 115 119 128 123 118 125 129 125 124 128 125 127 121 115 118 116 109 104 92 84 76 71 67 62 56 57 59 54 57 57 60 63 64 67 66 65 66 63 62 63 59 60 59 62 53 60 67
341 257 240 255 272 234 165 187 171 68 210 221 197 202 149 174 190 184 163 198 188 171 178 180 176 188 188 187 182 181 179 175 170 162 151 140 139 138 138 141 135 132 125 123 127 134 135 124 115 106 104 106 106 109 114 116 118 130 134 137 135 134 133 131 123 113 110 95 89 81 76 71 65 64 62 56 57 56 57 59 64 68 67 66 65 62 65 70 64 64 61 60 60 63 63 65 65
214 256 221 232 300 11 358 280 101 196 243 236 206 195 185 167 209 210 217 199 170 172 179 179 181 188 186 183 183 187 181 172 163 156 144 138 137 138 138 138 138 131 126 129 136 130 117 106 108 101 96 99 100 102 97 94 99 109 124 133 135 136 137 134 128 121 108 99 93 87 78 72 64 64 61 61 52 53 61 61 63 67 69 67 65 68 66 66 68 65 62 63 63 65 66 66 64
212 238 243 153 258 137 253 177 226 213 205 242 185 176 223 233 195 190 204 190 189 188 183 180 179 183 179 177 180 187 176 164 159 152 145 146 147 142 140 139 137 136 134 138 134 119 108 110 113 109 102 99 97 97 95 91 91 98 115 119 122 127 125 127 122 111 108 102 98 90 83 79 73 69 62 69 55 57 63 64 64 67 67 64 68 66 65 66 68 65 67 66 68 69 69 70 66
202 207 184 162 186 177 213 242 204 284 272 251 181 168 206 225 249 197 191 196 189 190 190 181 175 178 174 173 176 178 170 163 154 151 148 151 151 144 140 142 140 139 139 138 129 120 120 120 117 110 105 96 95 91 94 90 86 91 98 104 109 113 114 111 107 109 106 102 100 96 93 97 91 90 84 76 73 69 66 71 73 70 65 62 64 65 65 67 69 72 71 73 74 73 72 69 67
209 200 164 174 142 164 208 179 189 199 197 248 162 135 229 148 234 212 201 193 185 184 170 172 174 164 162 165 169 168 164 161 154 155 152 154 152 147 145 147 146 143 140 134 129 124 124 121 118 111 103 93 92 95 96 95 94 93 96 102 107 110 106 102 105 111 112 109 105 104 102 98 97 97 93 87 72 72 70 68 69 67 62 61 59 60 64 67 70 71 74 79 78 76 74 72 69
212 169 97 140 216 133 200 197 160 201 186 107 155 167 190 151 299 277 143 116 147 152 150 153 161 153 159 165 175 170 166 161 159 155 150 154 151 146 144 151 148 141 139 134 131 130 125 123 112 107 109 107 105 103 100 105 101 101 103 107 110 109 108 104 105 107 108 112 112 111 109 103 101 100 90 83 73 76 73 72 69 68 67 63 61 64 67 71 76 78 74 75 78 76 79 76 74
208 144 202 209 163 129 106 83 226 86 88 215 188 72 327 354 17 6 121 128 143 146 149 159 159 161 165 172 176 170 167 162 160 159 156 154 151 151 148 154 145 141 142 139 137 134 131 124 116 110 104 102 105 108 110 107 110 106 106 110 112 108 109 113 117 116 114 109 107 109 111 110 102 96 96 91 85 77 76 75 71 66 63 65 65 66 72 76 75 76 76 75 76 77 81 83 81
140 187 215 201 150 129 138 197 316 54 145 227 87 140 214 86 276 340 115 138 153 159 162 165 161 165 173 177 178 171 168 164 158 156 156 154 153 153 149 157 146 146 141 138 138 134 127 125 123 118 115 112 112 114 113 115 115 111 114 111 109 111 113 115 117 116 114 107 101 103 102 98 103 101 94 90 83 77 70 70 71 68 65 64 68 67 71 74 75 73 74 74 81 83 84 83 82
168 204 167 171 198 232 303 105 183 144 188 219 16 172 170 178 160 141 163 156 169 164 161 159 171 178 180 177 174 169 161 156 157 161 160 158 157 160 156 155 147 144 141 139 134 131 126 122 122 124 126 125 124 117 112 110 113 117 121 124 122 114 110 111 110 109 105 102 105 105 102 106 91 87 89 85 80 75 74 69 70 69 66 68 67 69 71 70 73 74 71 75 75 80 84 82 83
202 78 171 173 116 156 149 199 175 130 231 111 268 86 233 213 175 174 175 177 170 165 167 180 181 183 176 175 171 166 163 162 164 165 165 162 160 162 158 151 151 150 147 144 140 135 131 130 123 119 116 120 119 119 122 122 125 123 125 121 115 109 111 113 113 107 100 103 108 106 105 94 97 92 90 87 82 82 76 73 66 65 61 57 61 62 66 69 69 72 79 77 75 82 82 84 79
219 189 225 220 186 221 134 107 142 175 173 177 144 269 277 249 191 175 175 174 175 171 179 181 183 181 178 173 170 165 163 163 165 164 162 159 158 157 154 149 147 146 141 141 143 141 137 134 132 134 133 132 127 132 128 131 130 133 134 132 122 111 110 112 106 103 105 106 106 102 98 104 92 88 93 87 86 84 81 79 73 65 64 60 55 47 47 66 69 75 75 80 74 73 76 74 77
168 167 193 176 146 145 177 251 10 116 107 185 133 225 266 264 171 187 176 180 176 182 174 177 179 176 174 172 170 164 161 163 161 161 159 158 157 154 149 149 147 146 145 145 141 136 139 139 138 134 129 136 136 137 133 134 134 133 129 122 112 110 113 112 108 108 107 108 104 101 107 94 91 91 92 91 89 86 82 78 75 69 64 61 58 54 47 65 80 79 73 74 78 69 72 73 74